Location: Oakhurst
(33.6448°N, 111.9543°W)
Time: 07:01:38
(UTC+00:00)

QB50P2 - Visible Passes

Search period start: 29 July 2021 00:00
Search period end: 08 August 2021 00:00
Orbit: 592 x 610 km, 97.9° (Epoch: 28 July)

Date Brightness Start Highest point End Pass type
(mag) Time Alt. Az. Time Alt. Az. Time Alt. Az.
29 Jul ? 08:14:15 10° NNE 08:15:00 15° NNE 08:15:00 15° NNE visible
30 Jul ? 08:25:37 10° NNE 08:26:28 16° NNE 08:26:28 16° NNE visible
31 Jul ? 08:37:03 10° N 08:37:57 16° N 08:37:57 16° N visible
01 Aug ? 08:48:33 10° N 08:49:25 16° N 08:49:25 16° N visible
02 Aug ? 09:00:08 10° N 09:00:53 14° NNW 09:00:53 14° NNW visible
03 Aug ? 09:11:49 10° NNW 09:12:22 13° NNW 09:12:22 13° NNW visible
04 Aug ? 09:23:38 10° NNW 09:23:50 11° NNW 09:23:50 11° NNW visible
06 Aug ? 08:09:50 10° NNE 08:10:00 11° NNE 08:10:00 11° NNE visible
07 Aug ? 08:21:10 10° NNE 08:21:27 12° NNE 08:21:27 12° NNE visible
